Regional Weather Roundup
Issued by NWS

Home | Current Version | Previous Version | Text Only | Print | Product List | Glossary On
Versions: 1 2 3 4 5 6 7 8 9 10 11 12 13 14 15 16 17 18 19 20 21 22 23 24 25 26 27 28 29 30 31 32 33 34 35 36 37 38 39 40 41 42 43 44 45 46 47 48 49 50
375
ASUS43 KFSD 281102
RWRSD

WEATHER ROUNDUP FOR SOUTH DAKOTA
NATIONAL WEATHER SERVICE SIOUX FALLS SD
600 AM CDT WED JUN 28 2017

NOTE: "FAIR" INDICATES FEW OR NO CLOUDS BELOW 12,000 FEET WITH NO
SIGNIFICANT WEATHER AND/OR OBSTRUCTIONS TO VISIBILITY.


SDZ001>005-009-010-012>017-281200-
NORTHWEST AND NORTH CENTRAL SOUTH DAKOTA

CITY           SKY/WX    TMP DP  RH WIND       PRES   REMARKS
BUFFALO          N/A     57  53  86 NW9       29.71R
FAITH            N/A     64  55  72 NW15      29.69R
MOBRIDGE       CLOUDY    68  56  65 NW16      29.55R
$$

SDZ012>016-024>037-041>051-057-063-072>074-281200-
SOUTHWEST AND SOUTH CENTRAL SOUTH DAKOTA

CITY           SKY/WX    TMP DP  RH WIND       PRES   REMARKS
RAPID CTY ARPT CLEAR     59  50  72 NW13      29.77R
PIERRE         LGT RAIN  66  58  75 NW13      29.60R
CUSTER         CLEAR     51  43  74 CALM      29.89R
PHILIP         CLOUDY    63  57  81 W8        29.69R
PINE RIDGE     CLEAR     55  51  86 W3        29.81R
SPEARFISH      FAIR      55  50  82 W8        29.84R
WINNER         PTSUNNY   66  57  72 W9        29.66R
$$

SDZ004>011-016>023-039-040-281200-
NORTHEAST SOUTH DAKOTA

CITY           SKY/WX    TMP DP  RH WIND       PRES   REMARKS
ABERDEEN       CLOUDY    67  61  81 W16       29.44S
WATERTOWN      CLOUDY    65  60  84 S15       29.49S
BROOKINGS      CLOUDY    65  61  87 S13       29.55S
SISSETON         N/A     66  65  96 SE12      29.44F
$$

SDZ017-020-022-023-036>040-048>070-281200-
SOUTHEAST SOUTH DAKOTA

CITY           SKY/WX    TMP DP  RH WIND       PRES   REMARKS
SIOUX FALLS    CLOUDY    65  63  93 S15       29.60R
HURON          CLOUDY    71  56  58 W17       29.52R
CHAMBERLAIN    CLOUDY    70  56  62 SW10      29.61R
MITCHELL       CLOUDY    71  59  65 SW14      29.56R
YANKTON        PTCLDY    67  63  87 SW6       29.63R
$$

ABBREVIATIONS USED IN REMARKS
   TC - TEMPERATURE IN CELSIUS
  WCI - WIND CHILL INDEX
   HX - HEAT INDEX
  VSB - VISIBILITY





USA.gov is the U.S. government's official web portal to all federal, state and local government web resources and services.